| time (UTC) | temp F | wind direction | speed MPH | gust MPH | rain 1hr in | rain 24hr in | rain mn in | humidity % | barometer mb |
| 20260503202356 | 61 | 99 | 3.0 | 6.0 | 0.01 | 0.02 | 0.01 | 81 | 1016.2 |
| 20260503201357 | 62 | 48 | 0.0 | 2.0 | 0.00 | 0.01 | 0.01 | 80 | 1016.0 |
| 20260503200341 | 62 | 48 | 1.0 | 3.0 | 0.00 | 0.01 | 0.01 | 80 | 1015.8 |
| 20260503195358 | 62 | 48 | 0.0 | 2.0 | 0.00 | 0.01 | 0.01 | 79 | 1016.0 |
| 20260503194341 | 62 | 48 | 1.0 | 3.0 | 0.00 | 0.01 | 0.01 | 79 | 1015.8 |
| 20260503193340 | 62 | 47 | 0.0 | 4.0 | 0.00 | 0.01 | 0.01 | 79 | 1015.6 |
| 20260503192357 | 62 | 46 | 2.0 | 4.0 | 0.01 | 0.01 | 0.01 | 78 | 1015.5 |
| 20260503191358 | 62 | 45 | 1.0 | 5.0 | 0.01 | 0.01 | 0.01 | 77 | 1015.3 |
| 20260503190340 | 62 | 49 | 4.0 | 5.0 | 0.01 | 0.01 | 0.01 | 76 | 1015.2 |
| 20260503185342 | 62 | 85 | 2.0 | 5.0 | 0.01 | 0.01 | 0.01 | 76 | 1015.5 |
| 20260503184347 | 62 | 82 | 1.0 | 4.0 | 0.01 | 0.01 | 0.01 | 76 | 1015.6 |
| 20260503183352 | 62 | 81 | 1.0 | 4.0 | 0.01 | 0.01 | 0.01 | 75 | 1015.5 |
| 20260503182344 | 63 | 77 | 1.0 | 6.0 | 0.00 | 0.00 | 0.00 | 73 | 1015.4 |
| 20260503181350 | 63 | 58 | 2.0 | 4.0 | 0.00 | 0.00 | 0.00 | 72 | 1015.4 |
| 20260503180355 | 63 | 58 | 3.0 | 6.0 | 0.00 | 0.00 | 0.00 | 71 | 1015.3 |
| 20260503175354 | 63 | 111 | 3.0 | 6.0 | 0.00 | 0.00 | 0.00 | 70 | 1015.3 |
| 20260503174338 | 63 | 63 | 3.0 | 9.0 | 0.00 | 0.00 | 0.00 | 70 | 1015.2 |
| 20260503173341 | 64 | 79 | 3.0 | 6.0 | 0.00 | 0.00 | 0.00 | 70 | 1015.0 |
| 20260503172358 | 64 | 62 | 3.0 | 7.0 | 0.00 | 0.00 | 0.00 | 69 | 1015.0 |
| 20260503171339 | 64 | 55 | 4.0 | 7.0 | 0.00 | 0.00 | 0.00 | 68 | 1015.0 |
| 20260503170342 | 64 | 84 | 1.0 | 7.0 | 0.00 | 0.00 | 0.00 | 67 | 1015.1 |
| 20260503150351 | 66 | 141 | 4.0 | 9.0 | 0.00 | 0.00 | 0.00 | 66 | 1015.2 |
| 20260503131356 | 66 | 203 | 2.0 | 10.0 | 0.00 | 0.00 | 0.00 | 65 | 1016.8 |
| 20260503130339 | 66 | 113 | 6.0 | 11.0 | 0.00 | 0.00 | 0.00 | 63 | 1017.0 |
| 20260503110339 | 66 | 158 | 3.0 | 7.0 | 0.00 | 0.00 | 0.00 | 64 | 1017.9 |
| 20260503090346 | 65 | 109 | 3.0 | 7.0 | 0.00 | 0.00 | 0.00 | 64 | 1018.1 |
| 20260503081353 | 65 | 195 | 1.0 | 6.0 | 0.00 | 0.00 | 0.00 | 67 | 1017.8 |
| 20260503080337 | 65 | 58 | 2.0 | 6.0 | 0.00 | 0.00 | 0.00 | 68 | 1017.8 |
| 20260503072355 | 64 | 164 | 1.0 | 4.0 | 0.00 | 0.00 | 0.00 | 72 | 1017.9 |
| 20260503071341 | 63 | 122 | 2.0 | 8.0 | 0.00 | 0.00 | 0.00 | 73 | 1018.1 |
| 20260503070345 | 63 | 49 | 1.0 | 6.0 | 0.00 | 0.00 | 0.00 | 75 | 1017.9 |
| 20260503060341 | 62 | 42 | 3.0 | 5.0 | 0.00 | 0.00 | 0.00 | 79 | 1017.9 |
| 20260503054342 | 62 | 44 | 2.0 | 3.0 | 0.00 | 0.00 | 0.00 | 79 | 1018.0 |
| 20260503053346 | 62 | 45 | 1.0 | 3.0 | 0.00 | 0.00 | 0.00 | 79 | 1018.1 |
| 20260503052345 | 62 | 44 | 1.0 | 4.0 | 0.00 | 0.00 | 0.00 | 80 | 1018.0 |
| 20260503051352 | 62 | 45 | 2.0 | 4.0 | 0.00 | 0.00 | 0.00 | 79 | 1018.0 |
| 20260503050356 | 62 | 44 | 2.0 | 3.0 | 0.00 | 0.00 | 0.00 | 79 | 1017.9 |
| 20260503045351 | 62 | 44 | 1.0 | 2.0 | 0.00 | 0.00 | 0.00 | 79 | 1017.9 |
| 20260503044358 | 62 | 44 | 1.0 | 3.0 | 0.00 | 0.00 | 0.00 | 79 | 1018.0 |
| 20260503043341 | 62 | 44 | 1.0 | 4.0 | 0.00 | 0.00 | 0.00 | 79 | 1017.9 |
| 20260503042339 | 62 | 44 | 1.0 | 3.0 | 0.00 | 0.00 | 0.00 | 79 | 1017.9 |
| 20260503041339 | 62 | 44 | 1.0 | 4.0 | 0.00 | 0.00 | 0.00 | 79 | 1018.0 |
| 20260503040343 | 62 | 43 | 3.0 | 5.0 | 0.00 | 0.00 | 0.00 | 79 | 1017.9 |
| 20260503035359 | 62 | 65 | 2.0 | 5.0 | 0.00 | 0.00 | 0.00 | 79 | 1018.1 |
| 20260503034357 | 62 | 87 | 3.0 | 5.0 | 0.00 | 0.00 | 0.00 | 80 | 1018.1 |
| 20260503033358 | 62 | 43 | 2.0 | 4.0 | 0.00 | 0.00 | 0.00 | 79 | 1018.0 |
| 20260503032353 | 62 | 41 | 1.0 | 3.0 | 0.00 | 0.00 | 0.00 | 79 | 1018.0 |
| 20260503031355 | 62 | 41 | 0.0 | 2.0 | 0.00 | 0.00 | 0.00 | 79 | 1018.3 |
| 20260503030342 | 62 | 41 | 0.0 | 1.0 | 0.00 | 0.00 | 0.00 | 79 | 1018.5 |
| 20260503025344 | 62 | 41 | 0.0 | 2.0 | 0.00 | 0.00 | 0.00 | 79 | 1018.6 |
| 20260503024341 | 62 | 41 | 0.0 | 3.0 | 0.00 | 0.00 | 0.00 | 78 | 1018.6 |
| 20260503023342 | 62 | 41 | 1.0 | 3.0 | 0.00 | 0.00 | 0.00 | 78 | 1018.6 |
| 20260503022341 | 62 | 41 | 1.0 | 3.0 | 0.00 | 0.00 | 0.00 | 78 | 1018.8 |
| 20260503021347 | 62 | 41 | 2.0 | 3.0 | 0.00 | 0.00 | 0.00 | 78 | 1018.7 |
| 20260503020338 | 62 | 42 | 1.0 | 5.0 | 0.00 | 0.00 | 0.00 | 78 | 1018.7 |
| 20260503015359 | 63 | 41 | 2.0 | 4.0 | 0.00 | 0.00 | 0.00 | 77 | 1018.7 |
| 20260503014358 | 63 | 41 | 1.0 | 3.0 | 0.00 | 0.00 | 0.00 | 77 | 1018.8 |
| 20260503013342 | 63 | 41 | 1.0 | 3.0 | 0.00 | 0.00 | 0.00 | 77 | 1018.7 |
| 20260503012344 | 63 | 40 | 1.0 | 3.0 | 0.00 | 0.00 | 0.00 | 76 | 1018.9 |
| 20260503011346 | 63 | 40 | 1.0 | 3.0 | 0.00 | 0.00 | 0.00 | 76 | 1019.1 |
| 20260503010352 | 63 | 40 | 0.0 | 2.0 | 0.00 | 0.00 | 0.00 | 76 | 1019.1 |
| 20260503005356 | 63 | 40 | 1.0 | 2.0 | 0.00 | 0.00 | 0.00 | 76 | 1019.3 |
| 20260503004357 | 63 | 40 | 1.0 | 3.0 | 0.00 | 0.00 | 0.00 | 76 | 1019.4 |
| 20260503003339 | 63 | 40 | 0.0 | 2.0 | 0.00 | 0.00 | 0.00 | 76 | 1019.6 |
| 20260503002340 | 63 | 40 | 0.0 | 2.0 | 0.00 | 0.00 | 0.00 | 76 | 1019.8 |
| 20260503001338 | 63 | 40 | 1.0 | 2.0 | 0.00 | 0.00 | 0.00 | 76 | 1019.8 |
| 20260503000400 | 63 | 40 | 0.0 | 3.0 | 0.00 | 0.00 | 0.00 | 76 | 1019.9 |
| 20260502235339 | 63 | 40 | 1.0 | 4.0 | 0.00 | 0.00 | 0.00 | 76 | 1020.1 |
| 20260502234342 | 63 | 40 | 2.0 | 3.0 | 0.00 | 0.00 | 0.00 | 76 | 1020.1 |
| 20260502233348 | 63 | 39 | 1.0 | 2.0 | 0.00 | 0.00 | 0.00 | 76 | 1020.2 |
| 20260502232339 | 63 | 39 | 0.0 | 2.0 | 0.00 | 0.00 | 0.00 | 76 | 1020.3 |
| 20260502231338 | 63 | 39 | 0.0 | 3.0 | 0.00 | 0.00 | 0.00 | 76 | 1020.2 |
| 20260502230345 | 63 | 37 | 2.0 | 5.0 | 0.00 | 0.00 | 0.00 | 77 | 1020.3 |
| 20260502225346 | 63 | 13 | 2.0 | 5.0 | 0.00 | 0.00 | 0.00 | 76 | 1020.3 |
| 20260502224356 | 63 | 48 | 2.0 | 4.0 | 0.00 | 0.00 | 0.00 | 76 | 1020.3 |
| 20260502223338 | 63 | 51 | 2.0 | 4.0 | 0.00 | 0.00 | 0.00 | 76 | 1020.4 |
| 20260502222356 | 63 | 58 | 2.0 | 4.0 | 0.00 | 0.00 | 0.00 | 76 | 1020.3 |
| 20260502221339 | 63 | 45 | 3.0 | 4.0 | 0.00 | 0.00 | 0.00 | 76 | 1020.6 |
| 20260502220343 | 63 | 42 | 2.0 | 6.0 | 0.00 | 0.00 | 0.00 | 76 | 1020.7 |
| 20260502215359 | 63 | 16 | 4.0 | 6.0 | 0.00 | 0.00 | 0.00 | 76 | 1020.7 |
| 20260502214356 | 63 | 40 | 4.0 | 6.0 | 0.00 | 0.00 | 0.00 | 76 | 1020.8 |
| 20260502213358 | 63 | 39 | 2.0 | 6.0 | 0.00 | 0.00 | 0.00 | 76 | 1021.0 |
| 20260502212357 | 63 | 53 | 2.0 | 5.0 | 0.00 | 0.00 | 0.00 | 75 | 1020.9 |
| 20260502211337 | 63 | 50 | 1.0 | 4.0 | 0.00 | 0.00 | 0.00 | 75 | 1021.1 |
| 20260502210339 | 63 | 52 | 3.0 | 5.0 | 0.00 | 0.00 | 0.00 | 75 | 1021.1 |
| 20260502205357 | 63 | 48 | 2.0 | 4.0 | 0.00 | 0.00 | 0.00 | 75 | 1021.0 |
| 20260502204343 | 63 | 48 | 2.0 | 4.0 | 0.00 | 0.00 | 0.00 | 75 | 1021.1 |
| 20260502203349 | 63 | 47 | 2.0 | 4.0 | 0.00 | 0.00 | 0.00 | 74 | 1021.0 |